Regional Weather Roundup
Issued by NWS Mobile, AL

Home | Current Version | Previous Version | Text Only | Print | Product List | Glossary On
Versions: 1 2 3 4 5 6 7 8 9 10 11 12 13 14 15 16 17 18 19 20 21 22 23 24 25 26 27 28 29 30 31 32 33 34 35 36 37 38 39 40 41 42 43 44 45 46 47 48 49 50
000
ASUS44 KMOB 290413
RWRMOB
REGIONAL WEATHER ROUNDUP
NATIONAL WEATHER SERVICE MOBILE AL
1100 PM CDT WED JUN 28 2017

NOTE: "FAIR" INDICATES FEW OR NO CLOUDS BELOW 12,000 FEET WITH NO
      SIGNIFICANT WEATHER AND/OR OBSTRUCTIONS TO VISIBILITY.

  * THESE STATIONS ARE PART OF THE UNIVERSITY OF SOUTH ALABAMA
    MESONET AND ARE NOT UNDER NWS OR FAA QUALITY CONTROL.

ALZ061>064-290500-
COASTAL ALABAMA

CITY           SKY/WX    TMP DP  RH WIND       PRES   REMARKS
MOBILE REG APT LGT RAIN  75  72  90 SE6       30.06R
BROOKLEY FIELD CLOUDY    77  75  93 SE10      30.06S
USA CAMPUS*      N/A     72  70  94 CALM      30.06R
DOG RIVER*       N/A    N/A N/A N/A MISG        N/A


CITY           SKY/WX    TMP DP  RH WIND       PRES   REMARKS
GULF SHORES    CLOUDY    74  74 100 E10       30.05S

$$

ALZ051>060-290500-
INTERIOR SOUTHWEST AND SOUTH CENTRAL ALABAMA

CITY           SKY/WX    TMP DP  RH WIND       PRES   REMARKS
GREENVILLE     MOCLDY    73  69  87 S5        30.09R
EVERGREEN      MOCLDY    73  71  93 CALM      30.08S
ATMORE*        NOT AVBL
ANDALUSIA/OPP  CLOUDY    75  71  87 E3        30.09S
ANDALUSIA*       N/A     72  72 100 E5        30.09S
FLORALA APT    CLOUDY    74  71  91 CALM      30.10S
FLORALA*         N/A     73  72  94 CALM      30.79F

$$

FLZ001>006-290500-
WESTERN FLORIDA PANHANDLE

CITY           SKY/WX    TMP DP  RH WIND       PRES   REMARKS
PENSACOLA      MOCLDY    79  75  87 E5        30.06R
NAS PENSACOLA  MOCLDY    78  75  90 SE7       30.06R
MILTON         CLOUDY    73  72  96 E5        30.07S
WHTNG S FIELD  CLOUDY    76  74  93 E7        30.07S


CITY           SKY/WX    TMP DP  RH WIND       PRES   REMARKS
JAY*             N/A     72  72 100 E2        30.08S
DUKE FIELD     CLOUDY    73  72  94 CALM      30.08R
CRESTVIEW      MOCLDY    73  72  96 CALM      30.10R
VALPARAISO     CLOUDY    76  74  92 E5        30.07R
DESTIN         MOCLDY    79  79 100 E5        30.07R

$$

MSZ076-079-290500-
INTERIOR SOUTHEAST MISSISSIPPI

CITY           SKY/WX    TMP DP  RH WIND       PRES   REMARKS
LEAKESVILLE*   NOT AVBL
AGRICOLA*        N/A     72  72 100 CALM      30.04

$$

MARINE OBSERVATIONS

STATION/POSITION TIME  TEMP    WIND        PRES    WAVE
                       AIR SEA DIR/SP/G            HT/PER
                 (UTC) (F)     (DEG/KT/KT) (MB)    (FT/S)
PASCAGOULA       0348   76      90/  5/  9 1017.0R
PETIT BOIS ISLND 0348   79     120/ 12/ 15 1017.7R
GRAND BAY        0245   77      70/  8     1018.0R
KATRINA CUT      0330   80     130/ 14     1017.3R
CEDAR POINT      0330   78     110/ 10     1017.3R
E DAUPHIN ISLAND 0300   80     110/ 13/ 15 1016.9R
MIDDLE BAY LIGHT 0330   77     110/ 14     1016.9S
USCG MOBILE BAY  0348   76 81  130/  9/ 12 1018.1R
STATE DOCKS      0348   76 79              1017.6R
MEAHER PARK      0330   75     100/  5     1017.6R
FORT MORGAN      0348   80     130/ 16/ 17   N/A
12 S ORANGE BCH  0250   80 82  130/ 12/ 16 1016.6R   2/ 4
PENSACOLA BAY    0348   79 82              1018.1R
64 S DAUPHIN ISL 0350   80 81  100/ 10/ 12 1017.1R   1/ 4
67 S FORT MORGAN 0330   79     100/  8     1017.3R

$$

SELECTED LOCATIONS ACROSS THE REGION

CITY           SKY/WX    TMP DP  RH WIND       PRES   REMARKS
NEW ORLEANS    CLOUDY    76  70  82 SE7       30.00R
GULFPORT       CLOUDY    77  74  90 E7        30.02R
PASCAGOULA AP  CLOUDY    75  72  90 E5        30.04R
PASCAGOULA*    NOT AVBL
HATTIESBURG    CLOUDY    73  70  90 SE7       30.03S
LAUREL         CLOUDY    72  70  94 SE7       30.04S
MERIDIAN       CLOUDY    75  73  93 SE5       30.05R
JACKSON        CLOUDY    75  70  84 S7        30.00S
MONTGOMERY     MOCLDY    78  70  76 S3        30.09R
TROY           PTCLDY    73  73 100 CALM      30.10S
ASHFORD*         N/A     72  72 100 E5        30.09S
DOTHAN         MOCLDY    76  75  97 VRB5      30.14R
PANAMA CITY    CLOUDY    75  72  90 E5        30.07S

$$




USA.gov is the U.S. government's official web portal to all federal, state and local government web resources and services.